AUA884 LGSA-LOWW

Flight info

Callsign AUA884
Flight time 2h 11m
Altitude 34000
Route SOKRI UY151 DDM DCT IXONI DCT VARDI DCT DIMIS DCT ZAG DCT NIDLO DCT NIGSI NIGSI2W
Aircraft A320/M-SDE3FGHIRWY/LB1

Departure

Time 2026-04-21 17:12
Airport Chania International Airport (LGSA)

Arrival

Time 2026-04-21 19:23
Airport Vienna International Airport (LOWW)
Time Latitude Longitude Altitude Speed Heading
2026-04-21 16:43 35.53902 24.13976 498 ft 0 kts 22°
2026-04-21 16:48 35.53902 24.13975 498 ft 0 kts 22°
2026-04-21 17:04 35.53901 24.13975 498 ft 0 kts 22°
2026-04-21 17:05 35.53905 24.13973 498 ft 1 kts 347°
2026-04-21 17:05 35.53901 24.13963 498 ft 2 kts 234°
2026-04-21 17:05 35.53863 24.13945 491 ft 7 kts 205°
2026-04-21 17:06 35.53824 24.13938 490 ft 5 kts 153°
2026-04-21 17:06 35.53808 24.13963 493 ft 3 kts 126°
2026-04-21 17:06 35.53794 24.13988 494 ft 7 kts 126°
2026-04-21 17:06 35.53731 24.13989 498 ft 14 kts 199°
2026-04-21 17:07 35.53672 24.14008 492 ft 14 kts 118°
2026-04-21 17:07 35.53601 24.14218 494 ft 26 kts 110°
2026-04-21 17:07 35.53527 24.14444 494 ft 29 kts 112°
2026-04-21 17:07 35.53450 24.14681 492 ft 30 kts 110°
2026-04-21 17:08 35.53372 24.14920 491 ft 29 kts 111°
2026-04-21 17:08 35.53300 24.15149 494 ft 29 kts 112°
2026-04-21 17:08 35.53222 24.15380 496 ft 30 kts 111°
2026-04-21 17:08 35.53148 24.15614 497 ft 30 kts 112°
2026-04-21 17:09 35.52992 24.16094 498 ft 31 kts 111°
2026-04-21 17:09 35.52910 24.16338 493 ft 31 kts 112°
2026-04-21 17:09 35.52831 24.16587 498 ft 31 kts 111°
2026-04-21 17:10 35.52756 24.16816 492 ft 22 kts 111°
2026-04-21 17:10 35.52694 24.16872 498 ft 6 kts 200°
2026-04-21 17:10 35.52661 24.16855 498 ft 5 kts 203°
2026-04-21 17:10 35.52587 24.16807 491 ft 18 kts 229°
2026-04-21 17:11 35.52620 24.16673 492 ft 24 kts 290°
2026-04-21 17:11 35.52749 24.16267 499 ft 83 kts 292°
2026-04-21 17:11 35.53040 24.15376 489 ft 139 kts 291°
2026-04-21 17:11 35.53448 24.14117 677 ft 165 kts 291°
2026-04-21 17:12 35.53875 24.12799 1315 ft 168 kts 290°
2026-04-21 17:12 35.54307 24.11470 1907 ft 176 kts 289°
2026-04-21 17:12 35.54790 24.09995 2187 ft 195 kts 290°
2026-04-21 17:12 35.55321 24.08391 2532 ft 211 kts 290°
2026-04-21 17:13 35.55899 24.06718 3207 ft 214 kts 298°
2026-04-21 17:13 35.56967 24.05447 3930 ft 221 kts 332°
2026-04-21 17:13 35.58497 24.05145 4562 ft 231 kts
2026-04-21 17:13 35.60095 24.05410 5265 ft 231 kts
2026-04-21 17:14 35.61700 24.05679 5937 ft 233 kts
2026-04-21 17:14 35.63295 24.05920 6545 ft 237 kts 356°
2026-04-21 17:14 35.64950 24.05463 6807 ft 254 kts 332°
2026-04-21 17:14 35.66458 24.04222 7184 ft 269 kts 321°
2026-04-21 17:15 35.67942 24.02783 7893 ft 272 kts 320°
2026-04-21 17:15 35.69433 24.01332 8668 ft 274 kts 320°
2026-04-21 17:15 35.70942 23.99874 9404 ft 278 kts 320°
2026-04-21 17:15 35.72459 23.98417 10222 ft 277 kts 319°
2026-04-21 17:16 35.74041 23.96900 10431 ft 300 kts 320°
2026-04-21 17:16 35.75726 23.95286 10575 ft 322 kts 320°
2026-04-21 17:16 35.77537 23.93559 10945 ft 334 kts 320°
2026-04-21 17:16 35.79380 23.91801 11609 ft 336 kts 320°
2026-04-21 17:17 35.81236 23.90030 12283 ft 339 kts 320°
2026-04-21 17:17 35.83114 23.88236 12903 ft 343 kts 320°
2026-04-21 17:17 35.85007 23.86426 13555 ft 346 kts 320°
2026-04-21 17:17 35.86912 23.84604 14172 ft 348 kts 320°
2026-04-21 17:18 35.88834 23.82768 14752 ft 350 kts 320°
2026-04-21 17:18 35.90761 23.80922 15333 ft 352 kts 320°
2026-04-21 17:18 35.92701 23.79060 15906 ft 354 kts 320°
2026-04-21 17:18 35.94651 23.77187 16468 ft 357 kts 320°
2026-04-21 17:19 35.96616 23.75300 17029 ft 359 kts 320°
2026-04-21 17:19 35.98571 23.73421 17568 ft 362 kts 320°
2026-04-21 17:19 36.00565 23.71507 18132 ft 364 kts 320°
2026-04-21 17:19 36.02573 23.69580 18632 ft 367 kts 320°
2026-04-21 17:20 36.04603 23.67632 19103 ft 369 kts 320°
2026-04-21 17:20 36.06640 23.65676 19560 ft 372 kts 320°
2026-04-21 17:20 36.08692 23.63699 20024 ft 375 kts 320°
2026-04-21 17:20 36.10759 23.61706 20481 ft 378 kts 320°
2026-04-21 17:21 36.12844 23.59695 20925 ft 381 kts 320°
2026-04-21 17:21 36.14951 23.57664 21358 ft 384 kts 320°
2026-04-21 17:21 36.17041 23.55645 21779 ft 387 kts 320°
2026-04-21 17:21 36.19172 23.53584 22199 ft 390 kts 320°
2026-04-21 17:22 36.20620 23.52186 22472 ft 392 kts 320°
2026-04-21 17:22 36.23502 23.49453 23006 ft 397 kts 323°
2026-04-21 17:22 36.25926 23.47776 23390 ft 403 kts 333°
2026-04-21 17:22 36.28597 23.46648 23731 ft 410 kts 343°
2026-04-21 17:23 36.31422 23.46019 24051 ft 414 kts 347°
2026-04-21 17:23 36.34271 23.45438 24364 ft 415 kts 346°
2026-04-21 17:23 36.37022 23.44412 24662 ft 411 kts 331°
2026-04-21 17:23 36.39520 23.42706 24972 ft 410 kts 327°
2026-04-21 17:24 36.41995 23.40922 25273 ft 412 kts 327°
2026-04-21 17:24 36.44474 23.39114 25573 ft 414 kts 326°
2026-04-21 17:24 36.46961 23.37294 25881 ft 416 kts 326°
2026-04-21 17:24 36.49457 23.35469 26176 ft 417 kts 327°
2026-04-21 17:25 36.51964 23.33638 26467 ft 419 kts 327°
2026-04-21 17:25 36.54451 23.31821 26768 ft 420 kts 326°
2026-04-21 17:25 36.56973 23.29978 27052 ft 422 kts 326°
2026-04-21 17:25 36.59513 23.28124 27327 ft 423 kts 326°
2026-04-21 17:26 36.62054 23.26268 27594 ft 425 kts 326°
2026-04-21 17:26 36.64606 23.24403 27857 ft 426 kts 326°
2026-04-21 17:26 36.67172 23.22527 28111 ft 428 kts 326°
2026-04-21 17:26 36.69741 23.20645 28351 ft 429 kts 326°
2026-04-21 17:27 36.72315 23.18757 28592 ft 430 kts 326°
2026-04-21 17:27 36.74904 23.16853 28822 ft 432 kts 326°
2026-04-21 17:27 36.77494 23.14949 29045 ft 433 kts 326°
2026-04-21 17:27 36.80094 23.13039 29278 ft 434 kts 326°
2026-04-21 17:28 36.82703 23.11123 29489 ft 435 kts 326°
2026-04-21 17:28 36.85316 23.09205 29761 ft 434 kts 326°
2026-04-21 17:28 36.87881 23.07320 30068 ft 433 kts 326°
2026-04-21 17:28 36.90472 23.05413 30311 ft 432 kts 326°
2026-04-21 17:29 36.93067 23.03504 30557 ft 431 kts 326°
2026-04-21 17:29 36.95650 23.01596 30795 ft 430 kts 326°
2026-04-21 17:29 36.98223 22.99692 31029 ft 430 kts 326°
2026-04-21 17:29 37.00798 22.97783 31252 ft 429 kts 326°
2026-04-21 17:30 37.03371 22.95875 31465 ft 429 kts 326°
2026-04-21 17:30 37.05940 22.93971 31740 ft 428 kts 326°
2026-04-21 17:30 37.07636 22.92714 31909 ft 427 kts 326°
2026-04-21 17:30 37.10189 22.90822 32153 ft 426 kts 326°
2026-04-21 17:31 37.13564 22.88320 32471 ft 425 kts 325°
2026-04-21 17:31 37.16104 22.86432 32700 ft 424 kts 325°
2026-04-21 17:31 37.17819 22.85158 32849 ft 424 kts 325°
2026-04-21 17:31 37.21181 22.82656 33141 ft 423 kts 325°
2026-04-21 17:32 37.22892 22.81382 33285 ft 423 kts 325°
2026-04-21 17:32 37.25421 22.79497 33514 ft 422 kts 325°
2026-04-21 17:32 37.27911 22.77641 33749 ft 422 kts 325°
2026-04-21 17:32 37.30432 22.75759 33925 ft 421 kts 325°
2026-04-21 17:33 37.35452 22.72005 33960 ft 419 kts 324°
2026-04-21 17:33 37.40461 22.68261 33975 ft 419 kts 324°
2026-04-21 17:34 37.45470 22.64510 33972 ft 419 kts 324°
2026-04-21 17:34 37.50476 22.60749 33977 ft 419 kts 324°
2026-04-21 17:35 37.55475 22.56981 33974 ft 418 kts 324°
2026-04-21 17:35 37.60472 22.53217 33994 ft 418 kts 324°
2026-04-21 17:36 37.65474 22.49448 33982 ft 419 kts 324°
2026-04-21 17:36 37.70478 22.45671 33993 ft 418 kts 324°
2026-04-21 17:37 37.75474 22.41885 33999 ft 419 kts 324°
2026-04-21 17:37 37.80437 22.38125 34003 ft 418 kts 324°
2026-04-21 17:38 37.85427 22.34341 34023 ft 418 kts 324°
2026-04-21 17:38 37.90406 22.30550 34017 ft 418 kts 324°
2026-04-21 17:39 37.95383 22.26756 34009 ft 417 kts 324°
2026-04-21 17:39 38.00361 22.22962 34006 ft 417 kts 324°
2026-04-21 17:40 38.05334 22.19171 34002 ft 417 kts 324°
2026-04-21 17:40 38.10296 22.15369 34016 ft 416 kts 324°
2026-04-21 17:41 38.15224 22.11585 34005 ft 416 kts 324°
2026-04-21 17:41 38.20177 22.07773 33995 ft 416 kts 324°
2026-04-21 17:42 38.25135 22.03964 33997 ft 416 kts 324°
2026-04-21 17:42 38.30097 22.00159 33995 ft 416 kts 324°
2026-04-21 17:43 38.35055 21.96338 33993 ft 416 kts 324°
2026-04-21 17:43 38.40002 21.92504 34028 ft 416 kts 324°
2026-04-21 17:44 38.44943 21.88673 34027 ft 415 kts 324°
2026-04-21 17:44 38.49873 21.84857 34016 ft 415 kts 324°
2026-04-21 17:45 38.54800 21.81028 34011 ft 414 kts 324°
2026-04-21 17:45 38.59724 21.77202 33984 ft 414 kts 325°
2026-04-21 17:46 38.64659 21.73363 33993 ft 415 kts 325°
2026-04-21 17:46 38.69561 21.69544 33988 ft 415 kts 325°
2026-04-21 17:47 38.74490 21.65683 33994 ft 415 kts 325°
2026-04-21 17:47 38.79420 21.61819 33998 ft 415 kts 325°
2026-04-21 17:48 38.84352 21.57957 34004 ft 415 kts 325°
2026-04-21 17:48 38.89282 21.54091 34027 ft 415 kts 324°
2026-04-21 17:49 38.94204 21.50218 34027 ft 414 kts 324°
2026-04-21 17:49 38.99084 21.46367 34015 ft 414 kts 324°
2026-04-21 17:50 39.04000 21.42489 34009 ft 414 kts 324°
2026-04-21 17:50 39.08911 21.38610 34001 ft 414 kts 324°
2026-04-21 17:51 39.13810 21.34728 34022 ft 414 kts 324°
2026-04-21 17:51 39.18712 21.30842 34015 ft 413 kts 324°
2026-04-21 17:52 39.23604 21.26945 34020 ft 413 kts 324°
2026-04-21 17:52 39.28497 21.23047 34019 ft 413 kts 324°
2026-04-21 17:53 39.33350 21.19185 34011 ft 412 kts 324°
2026-04-21 17:53 39.38233 21.15296 34034 ft 412 kts 324°
2026-04-21 17:54 39.43108 21.11399 34017 ft 412 kts 324°
2026-04-21 17:54 39.47988 21.07483 34004 ft 412 kts 324°
2026-04-21 17:55 39.52866 21.03561 34003 ft 412 kts 324°
2026-04-21 17:55 39.57748 20.99644 34003 ft 413 kts 324°
2026-04-21 17:56 39.62629 20.95716 34027 ft 413 kts 324°
2026-04-21 17:56 39.67465 20.91810 34026 ft 412 kts 324°
2026-04-21 17:57 39.72359 20.87941 34023 ft 412 kts 327°
2026-04-21 17:57 39.77448 20.84491 34013 ft 413 kts 329°
2026-04-21 17:58 39.82622 20.81213 34011 ft 413 kts 329°
2026-04-21 17:58 39.87764 20.77875 34026 ft 412 kts 329°
2026-04-21 17:59 39.92832 20.74495 34023 ft 411 kts 328°
2026-04-21 17:59 39.97918 20.71071 34012 ft 410 kts 328°
2026-04-21 18:00 40.02988 20.67670 34005 ft 410 kts 328°
2026-04-21 18:00 40.08059 20.64284 34000 ft 409 kts 328°
2026-04-21 18:01 40.13119 20.60897 34016 ft 408 kts 328°
2026-04-21 18:01 40.18164 20.57505 34006 ft 407 kts 328°
2026-04-21 18:02 40.23173 20.54124 34002 ft 407 kts 328°
2026-04-21 18:02 40.28211 20.50728 33992 ft 407 kts 328°
2026-04-21 18:03 40.33239 20.47335 33986 ft 406 kts 328°
2026-04-21 18:03 40.38273 20.43938 33993 ft 407 kts 328°
2026-04-21 18:04 40.43369 20.40475 33978 ft 416 kts 328°
2026-04-21 18:04 40.48534 20.36963 33977 ft 419 kts 328°
2026-04-21 18:05 40.53721 20.33446 33967 ft 419 kts 328°
2026-04-21 18:05 40.58905 20.29917 33996 ft 420 kts 328°
2026-04-21 18:06 40.64091 20.26379 33970 ft 420 kts 328°
2026-04-21 18:06 40.69249 20.22856 33967 ft 420 kts 328°
2026-04-21 18:07 40.74440 20.19294 33961 ft 420 kts 328°
2026-04-21 18:07 40.79629 20.15731 33969 ft 420 kts 328°
2026-04-21 18:08 40.84807 20.12169 34001 ft 419 kts 327°
2026-04-21 18:08 40.89921 20.08646 34002 ft 416 kts 328°
2026-04-21 18:09 40.95053 20.05108 33994 ft 414 kts 327°
2026-04-21 18:09 41.00152 20.01578 33984 ft 413 kts 327°
2026-04-21 18:10 41.05256 19.98051 33987 ft 413 kts 328°
2026-04-21 18:10 41.10349 19.94534 33978 ft 413 kts 327°
2026-04-21 18:11 41.15436 19.91000 33971 ft 413 kts 327°
2026-04-21 18:11 41.20492 19.87482 33967 ft 412 kts 327°
2026-04-21 18:12 41.25576 19.83934 33961 ft 412 kts 327°
2026-04-21 18:12 41.30645 19.80392 33967 ft 412 kts 327°
2026-04-21 18:13 41.35729 19.76839 33936 ft 413 kts 327°
2026-04-21 18:13 41.40818 19.73275 33932 ft 413 kts 327°
2026-04-21 18:14 41.48429 19.67919 33945 ft 414 kts 327°
2026-04-21 18:15 41.53529 19.64336 33949 ft 415 kts 327°
2026-04-21 18:15 41.58642 19.60740 33939 ft 416 kts 327°
2026-04-21 18:16 41.63765 19.57117 33935 ft 417 kts 327°
2026-04-21 18:16 41.68900 19.53471 33942 ft 418 kts 327°
2026-04-21 18:17 41.74041 19.49819 33942 ft 419 kts 327°
2026-04-21 18:17 41.79194 19.46167 33951 ft 420 kts 327°
2026-04-21 18:18 41.84365 19.42497 33950 ft 421 kts 327°
2026-04-21 18:18 41.89535 19.38817 33950 ft 421 kts 327°
2026-04-21 18:19 41.94706 19.35118 33959 ft 421 kts 327°
2026-04-21 18:19 41.99847 19.31429 33986 ft 421 kts 327°
2026-04-21 18:20 42.05019 19.27727 33989 ft 421 kts 327°
2026-04-21 18:20 42.09314 19.24646 33989 ft 420 kts 327°
2026-04-21 18:21 42.14476 19.20930 33989 ft 420 kts 327°
2026-04-21 18:21 42.20456 19.16613 34017 ft 419 kts 327°
2026-04-21 18:22 42.24759 19.13508 34009 ft 417 kts 327°
2026-04-21 18:22 42.29838 19.09837 33988 ft 417 kts 327°
2026-04-21 18:23 42.34947 19.06137 33980 ft 416 kts 327°
2026-04-21 18:23 42.40061 19.02428 33977 ft 416 kts 327°
2026-04-21 18:24 42.45169 18.98715 34005 ft 416 kts 326°
2026-04-21 18:24 42.50262 18.94999 33999 ft 415 kts 326°
2026-04-21 18:25 42.55338 18.91284 33993 ft 414 kts 326°
2026-04-21 18:25 42.60381 18.87595 33992 ft 414 kts 326°
2026-04-21 18:26 42.65448 18.83886 34022 ft 413 kts 326°
2026-04-21 18:26 42.70506 18.80176 34004 ft 412 kts 326°
2026-04-21 18:27 42.75544 18.76473 33986 ft 411 kts 326°
2026-04-21 18:27 42.80575 18.72759 33984 ft 411 kts 326°
2026-04-21 18:28 42.85596 18.69045 33980 ft 410 kts 326°
2026-04-21 18:28 42.90620 18.65330 34003 ft 410 kts 326°
2026-04-21 18:29 42.95631 18.61620 34006 ft 409 kts 326°
2026-04-21 18:29 43.00636 18.57912 34009 ft 409 kts 326°
2026-04-21 18:30 43.05599 18.54226 33992 ft 409 kts 326°
2026-04-21 18:30 43.10598 18.50497 34021 ft 408 kts 325°
2026-04-21 18:31 43.15579 18.46771 34009 ft 408 kts 325°
2026-04-21 18:31 43.20557 18.43043 34017 ft 408 kts 325°
2026-04-21 18:32 43.25531 18.39315 34007 ft 407 kts 325°
2026-04-21 18:32 43.30508 18.35579 34007 ft 407 kts 325°
2026-04-21 18:33 43.35478 18.31843 34014 ft 407 kts 325°
2026-04-21 18:33 43.40447 18.28104 34003 ft 407 kts 325°
2026-04-21 18:34 43.45414 18.24354 34009 ft 407 kts 325°
2026-04-21 18:34 43.50387 18.20589 34005 ft 407 kts 325°
2026-04-21 18:35 43.54519 18.17458 34045 ft 407 kts 325°
2026-04-21 18:35 43.60279 18.13084 34041 ft 406 kts 325°
2026-04-21 18:36 43.65221 18.09322 34041 ft 405 kts 325°
2026-04-21 18:36 43.70160 18.05564 34030 ft 405 kts 325°
2026-04-21 18:37 43.75088 18.01803 34032 ft 405 kts 325°
2026-04-21 18:37 43.80010 17.98035 34053 ft 403 kts 324°
2026-04-21 18:38 43.84914 17.94272 34051 ft 403 kts 324°
2026-04-21 18:38 43.89810 17.90504 34065 ft 402 kts 324°
2026-04-21 18:39 43.94700 17.86734 34058 ft 402 kts 325°
2026-04-21 18:39 43.99550 17.83006 34093 ft 401 kts 324°
2026-04-21 18:40 44.04421 17.79253 34079 ft 399 kts 324°
2026-04-21 18:40 44.08488 17.76095 34082 ft 399 kts 324°
2026-04-21 18:41 44.14108 17.71733 34077 ft 398 kts 324°
2026-04-21 18:41 44.18946 17.67979 34079 ft 398 kts 324°
2026-04-21 18:42 44.23776 17.64226 34114 ft 397 kts 324°
2026-04-21 18:42 44.28606 17.60462 34108 ft 397 kts 324°
2026-04-21 18:43 44.33423 17.56694 34100 ft 396 kts 324°
2026-04-21 18:43 44.38238 17.52927 34097 ft 396 kts 324°
2026-04-21 18:44 44.43012 17.49190 34131 ft 396 kts 323°
2026-04-21 18:44 44.47817 17.45412 34116 ft 395 kts 323°
2026-04-21 18:45 44.52610 17.41636 34107 ft 395 kts 323°
2026-04-21 18:45 44.57407 17.37855 34109 ft 395 kts 323°
2026-04-21 18:46 44.62197 17.34069 34105 ft 395 kts 323°
2026-04-21 18:46 44.66983 17.30275 34121 ft 396 kts 323°
2026-04-21 18:47 44.71761 17.26490 34089 ft 397 kts 323°
2026-04-21 18:47 44.76576 17.22669 34098 ft 397 kts 323°
2026-04-21 18:48 44.81384 17.18843 34099 ft 397 kts 323°
2026-04-21 18:48 44.86186 17.15006 34110 ft 397 kts 323°
2026-04-21 18:49 44.91006 17.11147 34113 ft 400 kts 323°
2026-04-21 18:49 44.95041 17.07902 34095 ft 402 kts 323°
2026-04-21 18:50 45.00727 17.03339 34079 ft 403 kts 324°
2026-04-21 18:50 45.05578 16.99443 34077 ft 404 kts 323°
2026-04-21 18:51 45.10468 16.95504 34108 ft 405 kts 324°
2026-04-21 18:51 45.15387 16.91539 34091 ft 408 kts 325°
2026-04-21 18:51 45.18014 16.89904 34070 ft 420 kts 338°
2026-04-21 18:52 45.20905 16.89080 34078 ft 425 kts 342°
2026-04-21 18:52 45.26754 16.87638 34093 ft 427 kts 343°
2026-04-21 18:53 45.32625 16.86217 34109 ft 429 kts 343°
2026-04-21 18:53 45.38522 16.84771 34091 ft 431 kts 343°
2026-04-21 18:54 45.44403 16.83318 34092 ft 432 kts 343°
2026-04-21 18:54 45.50328 16.81854 34096 ft 433 kts 343°
2026-04-21 18:55 45.55269 16.80629 34096 ft 433 kts 343°
2026-04-21 18:55 45.62208 16.78903 34104 ft 433 kts 343°
2026-04-21 18:56 45.68154 16.77428 34105 ft 434 kts 343°
2026-04-21 18:56 45.74103 16.75949 34127 ft 434 kts 344°
2026-04-21 18:57 45.80053 16.74462 34113 ft 434 kts 344°
2026-04-21 18:57 45.85966 16.72976 34115 ft 434 kts 344°
2026-04-21 18:58 45.91928 16.71477 34110 ft 435 kts 344°
2026-04-21 18:58 45.97883 16.69982 34121 ft 435 kts 344°
2026-04-21 18:59 46.03854 16.68470 34119 ft 436 kts 344°
2026-04-21 18:59 46.09836 16.66958 34111 ft 437 kts 344°
2026-04-21 18:59 46.12841 16.66197 33754 ft 437 kts 344°
2026-04-21 19:00 46.15832 16.65438 33353 ft 436 kts 344°
2026-04-21 19:00 46.18828 16.64674 32972 ft 438 kts 345°
2026-04-21 19:00 46.21831 16.63909 32578 ft 439 kts 345°
2026-04-21 19:00 46.24804 16.63152 32199 ft 439 kts 345°
2026-04-21 19:01 46.27814 16.62391 31817 ft 439 kts 345°
2026-04-21 19:01 46.30824 16.61631 31439 ft 440 kts 345°
2026-04-21 19:01 46.33847 16.60868 31068 ft 440 kts 346°
2026-04-21 19:01 46.36928 16.60560 30697 ft 447 kts 355°
2026-04-21 19:02 46.40061 16.60643 30355 ft 449 kts 356°
2026-04-21 19:02 46.43173 16.60737 29954 ft 450 kts 356°
2026-04-21 19:02 46.46307 16.60840 29515 ft 451 kts 357°
2026-04-21 19:02 46.49407 16.60950 29089 ft 452 kts 357°
2026-04-21 19:03 46.52552 16.61062 28667 ft 453 kts 357°
2026-04-21 19:03 46.55708 16.61173 28252 ft 454 kts 357°
2026-04-21 19:03 46.58868 16.61283 27860 ft 455 kts 358°
2026-04-21 19:03 46.62034 16.61396 27447 ft 456 kts 358°
2026-04-21 19:04 46.65203 16.61507 27044 ft 456 kts 358°
2026-04-21 19:04 46.68384 16.61613 26648 ft 457 kts 358°
2026-04-21 19:04 46.71568 16.61716 26257 ft 458 kts 358°
2026-04-21 19:04 46.74760 16.61818 25873 ft 459 kts 358°
2026-04-21 19:05 46.77915 16.61922 25499 ft 460 kts 358°
2026-04-21 19:05 46.81115 16.62032 25145 ft 461 kts 358°
2026-04-21 19:05 46.84324 16.62143 24785 ft 461 kts 358°
2026-04-21 19:05 46.87501 16.62256 23862 ft 452 kts 358°
2026-04-21 19:06 46.90611 16.62368 22568 ft 440 kts 358°
2026-04-21 19:06 46.93580 16.62476 21964 ft 416 kts 358°
2026-04-21 19:06 46.96448 16.62577 21227 ft 406 kts 358°
2026-04-21 19:06 46.99179 16.62671 21024 ft 378 kts 358°
2026-04-21 19:07 47.01716 16.62760 20902 ft 352 kts 358°
2026-04-21 19:07 47.04084 16.62845 20695 ft 331 kts 358°
2026-04-21 19:07 47.06316 16.62921 20170 ft 321 kts 358°
2026-04-21 19:07 47.08533 16.62992 19538 ft 317 kts 358°
2026-04-21 19:08 47.10725 16.63059 18899 ft 313 kts 358°
2026-04-21 19:08 47.12891 16.63127 18233 ft 310 kts 358°
2026-04-21 19:08 47.15037 16.63195 17534 ft 307 kts 358°
2026-04-21 19:08 47.17177 16.63265 17089 ft 306 kts 358°
2026-04-21 19:09 47.19296 16.63338 16744 ft 304 kts 358°
2026-04-21 19:09 47.21375 16.63410 16392 ft 302 kts 359°
2026-04-21 19:09 47.23468 16.63482 16052 ft 300 kts 359°
2026-04-21 19:09 47.25545 16.63551 15703 ft 298 kts 358°
2026-04-21 19:10 47.27614 16.63619 15359 ft 296 kts 359°
2026-04-21 19:10 47.29671 16.63689 15040 ft 294 kts 358°
2026-04-21 19:10 47.31709 16.63760 14694 ft 291 kts 359°
2026-04-21 19:10 47.33723 16.63832 14087 ft 289 kts 359°
2026-04-21 19:11 47.35728 16.63903 13452 ft 286 kts 359°
2026-04-21 19:11 47.37709 16.63973 12817 ft 282 kts 359°
2026-04-21 19:11 47.39633 16.64042 12186 ft 280 kts 359°
2026-04-21 19:11 47.41587 16.64109 11508 ft 279 kts 360°
2026-04-21 19:12 47.42895 16.64152 11344 ft 279 kts 359°
2026-04-21 19:12 47.45439 16.64234 11152 ft 275 kts
2026-04-21 19:12 47.47346 16.64299 11021 ft 274 kts
2026-04-21 19:12 47.49257 16.64366 10906 ft 274 kts
2026-04-21 19:13 47.51162 16.64436 10786 ft 274 kts
2026-04-21 19:13 47.53062 16.64506 10668 ft 273 kts
2026-04-21 19:13 47.54957 16.64574 10547 ft 272 kts
2026-04-21 19:13 47.56825 16.64638 10307 ft 271 kts
2026-04-21 19:14 47.58707 16.64703 10162 ft 270 kts
2026-04-21 19:14 47.60584 16.64770 10035 ft 269 kts
2026-04-21 19:14 47.62455 16.64835 9742 ft 271 kts
2026-04-21 19:14 47.64363 16.64900 9136 ft 276 kts
2026-04-21 19:15 47.66255 16.64961 8635 ft 267 kts
2026-04-21 19:15 47.68079 16.65020 8155 ft 257 kts
2026-04-21 19:15 47.69840 16.65082 7687 ft 249 kts
2026-04-21 19:15 47.71544 16.65143 7236 ft 241 kts
2026-04-21 19:16 47.73171 16.65202 6803 ft 233 kts
2026-04-21 19:16 47.74766 16.65260 6367 ft 226 kts
2026-04-21 19:16 47.76317 16.65314 5947 ft 222 kts
2026-04-21 19:16 47.77862 16.65368 5528 ft 223 kts
2026-04-21 19:17 47.80985 16.65481 4687 ft 226 kts
2026-04-21 19:17 47.82545 16.65539 4433 ft 219 kts
2026-04-21 19:17 47.84043 16.65593 4374 ft 213 kts
2026-04-21 19:18 47.85526 16.65644 4324 ft 213 kts
2026-04-21 19:18 47.87011 16.65695 4240 ft 215 kts
2026-04-21 19:18 47.88507 16.65747 4147 ft 215 kts
2026-04-21 19:18 47.90002 16.65799 4049 ft 215 kts
2026-04-21 19:19 47.91483 16.65851 4003 ft 207 kts
2026-04-21 19:19 47.92877 16.65780 3888 ft 198 kts 352°
2026-04-21 19:19 47.94192 16.65308 3657 ft 196 kts 347°
2026-04-21 19:19 47.95494 16.64765 3405 ft 193 kts 347°
2026-04-21 19:20 47.96778 16.64226 3141 ft 190 kts 347°
2026-04-21 19:20 47.98030 16.63698 2915 ft 184 kts 347°
2026-04-21 19:20 47.99232 16.63192 2637 ft 174 kts 347°
2026-04-21 19:20 48.00351 16.62721 2338 ft 160 kts 347°
2026-04-21 19:21 48.01387 16.62286 2208 ft 149 kts 347°
2026-04-21 19:21 48.02364 16.61872 1964 ft 142 kts 347°
2026-04-21 19:21 48.04113 16.61137 1630 ft 142 kts 346°
2026-04-21 19:22 48.05061 16.60738 1433 ft 141 kts 347°
2026-04-21 19:22 48.06006 16.60340 1235 ft 141 kts 345°
2026-04-21 19:22 48.06944 16.59946 1019 ft 139 kts 344°
2026-04-21 19:22 48.07884 16.59547 820 ft 141 kts 343°
2026-04-21 19:23 48.08826 16.59152 645 ft 140 kts 343°
2026-04-21 19:23 48.09705 16.58774 619 ft 116 kts 345°
2026-04-21 19:23 48.10360 16.58501 611 ft 86 kts 344°
2026-04-21 19:23 48.10837 16.58299 614 ft 44 kts 344°
2026-04-21 19:24 48.11017 16.58135 609 ft 25 kts 305°
2026-04-21 19:24 48.11078 16.57969 613 ft 14 kts 292°
2026-04-21 19:24 48.11103 16.57911 620 ft 14 kts 319°
2026-04-21 19:24 48.11165 16.57880 609 ft 13 kts 349°
2026-04-21 19:25 48.11258 16.57849 617 ft 13 kts 342°
2026-04-21 19:25 48.11348 16.57806 609 ft 14 kts 343°
2026-04-21 19:25 48.11448 16.57763 618 ft 16 kts 344°
2026-04-21 19:25 48.11560 16.57716 621 ft 17 kts 344°
2026-04-21 19:26 48.11674 16.57667 611 ft 16 kts 344°
2026-04-21 19:26 48.11785 16.57620 613 ft 14 kts 343°
2026-04-21 19:26 48.11831 16.57557 611 ft 10 kts 285°
2026-04-21 19:26 48.11818 16.57452 617 ft 10 kts 254°
2026-04-21 19:27 48.11811 16.57356 615 ft 9 kts 281°
2026-04-21 19:27 48.11838 16.57267 618 ft 11 kts 296°
2026-04-21 19:27 48.11855 16.57152 609 ft 12 kts 282°
2026-04-21 19:27 48.11892 16.57033 620 ft 13 kts 296°
2026-04-21 19:28 48.11930 16.56916 609 ft 10 kts 295°
2026-04-21 19:28 48.11960 16.56823 618 ft 10 kts 296°
2026-04-21 19:28 48.11987 16.56737 613 ft 8 kts 290°
2026-04-21 19:28 48.11963 16.56681 613 ft 5 kts 207°
2026-04-21 19:29 48.11937 16.56662 609 ft 4 kts 206°
2026-04-21 19:29 48.11934 16.56660 622 ft 0 kts 206°